DW2028 Weather Reports


Display with metric or nautical units.
time (UTC)temp
F
wind
direction
speed
MPH
gust
MPH
rain 1hr
in
rain 24hr
in
rain mn
in
humidity
%
barometer
mb
20260504220831 75 115 1.0 7.0 0.00 0.00 0.00 47 1012.6
20260504220313 75 126 1.0 6.0 0.00 0.00 0.00 47 1012.7
20260504215815 75 159 3.0 6.0 0.00 0.00 0.00 45 1012.7
20260504215318 76 146 1.0 6.0 0.00 0.00 0.00 46 1012.7
20260504214822 76 208 2.0 6.0 0.00 0.00 0.00 46 1012.6
20260504214345 76 146 2.0 5.0 0.00 0.00 0.00 46 1012.6
20260504213828 76 161 2.0 6.0 0.00 0.00 0.00 45 1012.6
20260504213312 76 142 3.0 6.0 0.00 0.00 0.00 45 1012.7
20260504212836 76 113 2.0 4.0 0.00 0.00 0.00 45 1012.7
20260504212319 76 176 1.0 4.0 0.00 0.00 0.00 45 1012.7
20260504211808 76 220 1.0 4.0 0.00 0.00 0.00 45 1012.7
20260504211311 76 171 0.0 4.0 0.00 0.00 0.00 45 1012.7
20260504210817 76 134 2.0 8.0 0.00 0.00 0.00 44 1012.7
20260504210320 76 171 5.0 8.0 0.00 0.00 0.00 44 1012.8
20260504205823 76 150 2.0 6.0 0.00 0.00 0.00 43 1012.8
20260504205326 76 165 2.0 6.0 0.00 0.00 0.00 43 1012.8
20260504204808 76 154 2.0 5.0 0.00 0.00 0.00 43 1013.2
20260504204312 76 166 1.0 4.0 0.00 0.00 0.00 44 1013.2
20260504203815 76 111 2.0 5.0 0.00 0.00 0.00 44 1013.2
20260504203322 76 110 1.0 5.0 0.00 0.00 0.00 43 1013.3
20260504202809 75 154 1.0 3.0 0.00 0.00 0.00 43 1013.3
20260504202314 76 175 2.0 4.0 0.00 0.00 0.00 42 1013.3
20260504201818 76 192 1.0 4.0 0.00 0.00 0.00 40 1013.8
20260504201320 76 163 2.0 4.0 0.00 0.00 0.00 41 1013.8
20260504200823 76 165 1.0 3.0 0.00 0.00 0.00 41 1013.8
20260504200306 76 173 1.0 5.0 0.00 0.00 0.00 40 1014.1
20260504195813 76 158 1.0 5.0 0.00 0.00 0.00 40 1014.1
20260504195316 76 126 1.0 5.0 0.00 0.00 0.00 42 1014.1
20260504194819 76 210 0.0 5.0 0.00 0.00 0.00 41 1014.3
20260504194322 76 192 1.0 5.0 0.00 0.00 0.00 41 1014.3
20260504193825 76 202 0.0 4.0 0.00 0.00 0.00 40 1014.3
20260504193312 77 149 1.0 4.0 0.00 0.00 0.00 41 1014.3
20260504192819 77 157 2.0 4.0 0.00 0.00 0.00 41 1014.3
20260504192323 77 196 1.0 2.0 0.00 0.00 0.00 40 1014.3
20260504191809 77 333 0.0 6.0 0.00 0.00 0.00 42 1014.3
20260504191333 76 28 2.0 6.0 0.00 0.00 0.00 43 1014.3
20260504190816 76 174 2.0 4.0 0.00 0.00 0.00 42 1014.3
20260504190317 76 167 2.0 4.0 0.00 0.00 0.00 42 1014.6
20260504185842 76 164 1.0 6.0 0.00 0.00 0.00 42 1014.6
20260504185323 76 163 2.0 6.0 0.00 0.00 0.00 41 1014.6
20260504184827 76 201 1.0 3.0 0.00 0.00 0.00 41 1014.8
20260504184309 76 111 2.0 4.0 0.00 0.00 0.00 42 1014.8
20260504183812 76 200 0.0 4.0 0.00 0.00 0.00 41 1014.8
20260504183335 75 231 0.0 5.0 0.00 0.00 0.00 41 1014.9
20260504182818 75 182 2.0 6.0 0.00 0.00 0.00 40 1014.9
20260504182325 76 138 2.0 6.0 0.00 0.00 0.00 42 1014.9
20260504181809 76 153 1.0 5.0 0.00 0.00 0.00 40 1015.2
20260504181313 76 123 3.0 5.0 0.00 0.00 0.00 40 1015.2
20260504180817 75 164 1.0 3.0 0.00 0.00 0.00 43 1015.2
20260504180320 75 175 2.0 3.0 0.00 0.00 0.00 42 1015.2
20260504175823 75 204 1.0 3.0 0.00 0.00 0.00 40 1015.2
20260504175327 76 159 1.0 5.0 0.00 0.00 0.00 42 1015.2
20260504174810 76 163 1.0 5.0 0.00 0.00 0.00 44 1015.3
20260504174313 75 130 0.0 3.0 0.00 0.00 0.00 41 1015.3
20260504173816 75 174 0.0 3.0 0.00 0.00 0.00 43 1015.3
20260504173339 75 186 1.0 3.0 0.00 0.00 0.00 43 1015.2
20260504172841 75 200 0.0 3.0 0.00 0.00 0.00 43 1015.2
20260504172324 75 210 1.0 3.0 0.00 0.00 0.00 43 1015.2
20260504171811 75 139 1.0 4.0 0.00 0.00 0.00 45 1015.4
20260504171315 75 175 1.0 4.0 0.00 0.00 0.00 44 1015.4
20260504170819 74 151 2.0 3.0 0.00 0.00 0.00 45 1015.4
20260504170323 75 242 0.0 7.0 0.00 0.00 0.00 43 1015.2
20260504160325 75 166 1.0 5.0 0.00 0.00 0.00 42 1015.8
20260504150824 74 133 2.0 5.0 0.00 0.00 0.00 50 1015.8
20260504150328 74 200 1.0 4.0 0.00 0.00 0.00 46 1015.8
20260504141323 72 215 0.0 0.0 0.00 0.00 0.00 56 1015.8
20260504140847 71 215 0.0 0.0 0.00 0.00 0.00 58 1015.8
20260504140310 71 215 0.0 2.0 0.00 0.00 0.00 55 1015.8
20260504130326 66 49 0.0 0.0 0.00 0.00 0.00 74 1015.9
20260504120315 55 49 0.0 0.0 0.00 0.00 0.00 91 1015.2
20260504110313 53 49 0.0 0.0 0.00 0.00 0.00 91 1015.0
20260504100319 53 49 0.0 0.0 0.00 0.00 0.00 91 1015.4
20260504081838 54 314 0.0 0.0 0.00 0.00 0.00 89 1015.2
20260504081320 54 314 0.0 0.0 0.00 0.00 0.00 90 1015.2
20260504080822 54 314 0.0 0.0 0.00 0.00 0.00 89 1015.2
20260504080326 54 314 0.0 0.0 0.00 0.00 0.00 89 1015.3
20260504070348 55 314 0.0 0.0 0.00 0.00 0.00 88 1015.9
20260504050317 57 289 0.0 0.0 0.00 0.00 0.00 82 1017.0
20260504045820 58 289 0.0 0.0 0.00 0.00 0.00 82 1017.0
20260504045323 58 289 0.0 0.0 0.00 0.00 0.00 81 1017.0
20260504044849 58 289 0.0 0.0 0.00 0.00 0.00 81 1017.0
20260504044311 58 289 0.0 0.0 0.00 0.00 0.00 81 1017.0
20260504043837 58 289 0.0 0.0 0.00 0.00 0.00 81 1017.0
20260504043319 58 289 0.0 0.0 0.00 0.00 0.00 80 1017.0
20260504042825 59 289 0.0 2.0 0.00 0.00 0.00 79 1017.0
20260504042309 59 289 0.0 2.0 0.00 0.00 0.00 79 1017.0
20260504041820 59 289 0.0 0.0 0.00 0.00 0.00 78 1017.1
20260504041344 59 258 0.0 0.0 0.00 0.00 0.00 77 1017.1
20260504040827 60 258 0.0 1.0 0.00 0.00 0.00 77 1017.1
20260504040309 60 258 0.0 2.0 0.00 0.00 0.00 76 1017.0
20260504035813 61 258 0.0 2.0 0.00 0.00 0.00 75 1017.0
20260504035337 61 258 0.0 0.0 0.00 0.00 0.00 73 1017.0
20260504034819 61 258 0.0 0.0 0.00 0.00 0.00 72 1017.0
20260504034343 61 258 0.0 2.0 0.00 0.00 0.00 71 1017.0
20260504033825 61 258 0.0 2.0 0.00 0.00 0.00 71 1017.0
20260504033328 61 258 0.0 2.0 0.00 0.00 0.00 71 1017.3
20260504032811 61 261 0.0 3.0 0.00 0.00 0.00 72 1017.3
20260504032314 61 245 0.0 3.0 0.00 0.00 0.00 73 1017.3
20260504031817 61 231 0.0 0.0 0.00 0.00 0.00 73 1017.1
20260504031321 61 231 0.0 1.0 0.00 0.00 0.00 72 1017.1
20260504030845 61 231 0.0 1.0 0.00 0.00 0.00 73 1017.1
20260504030312 61 231 0.0 1.0 0.00 0.00 0.00 74 1016.9
20260504025816 61 276 0.0 0.0 0.00 0.00 0.00 73 1016.9
20260504025319 61 276 0.0 0.0 0.00 0.00 0.00 73 1016.9
20260504024822 61 276 0.0 0.0 0.00 0.00 0.00 72 1016.8
20260504024348 61 276 0.0 2.0 0.00 0.00 0.00 72 1016.8
20260504023811 61 276 0.0 2.0 0.00 0.00 0.00 72 1016.8
20260504023315 61 290 0.0 0.0 0.00 0.00 0.00 73 1016.7
20260504022818 62 290 0.0 0.0 0.00 0.00 0.00 73 1016.7
20260504022321 62 290 0.0 0.0 0.00 0.00 0.00 73 1016.7
20260504021824 62 290 0.0 0.0 0.00 0.00 0.00 73 1016.5
20260504021349 62 290 0.0 0.0 0.00 0.00 0.00 73 1016.5
20260504020831 62 290 0.0 0.0 0.00 0.00 0.00 71 1016.5
20260504020314 63 290 0.0 0.0 0.00 0.00 0.00 71 1016.4
20260504015822 63 290 0.0 0.0 0.00 0.00 0.00 71 1016.4
20260504015325 63 290 0.0 0.0 0.00 0.00 0.00 70 1016.4
20260504014810 63 290 0.0 0.0 0.00 0.00 0.00 69 1016.3
20260504014313 64 290 0.0 0.0 0.00 0.00 0.00 68 1016.3
20260504013817 64 290 0.0 0.0 0.00 0.00 0.00 67 1016.3
20260504013320 64 290 0.0 0.0 0.00 0.00 0.00 65 1016.3
20260504012824 65 290 0.0 0.0 0.00 0.00 0.00 64 1016.3
20260504012309 65 290 0.0 0.0 0.00 0.00 0.00 60 1016.3
20260504011812 66 290 0.0 0.0 0.00 0.00 0.00 60 1016.1
20260504011315 66 290 0.0 0.0 0.00 0.00 0.00 60 1016.1
20260504010818 67 290 0.0 0.0 0.00 0.00 0.00 60 1016.1
20260504010326 67 290 0.0 0.0 0.00 0.00 0.00 60 1016.0
20260504005810 68 290 0.0 0.0 0.00 0.00 0.00 59 1016.0
20260504005314 68 290 0.0 0.0 0.00 0.00 0.00 57 1016.0
20260504004838 69 290 0.0 2.0 0.00 0.00 0.00 55 1015.8
20260504004320 70 290 0.0 2.0 0.00 0.00 0.00 53 1015.8
20260504003823 71 290 0.0 0.0 0.00 0.00 0.00 54 1015.8
20260504003309 72 290 0.0 0.0 0.00 0.00 0.00 51 1015.8
20260504002812 72 290 0.0 0.0 0.00 0.00 0.00 50 1015.8
20260504002315 74 290 0.0 2.0 0.00 0.00 0.00 49 1015.8
20260504001838 75 290 0.0 2.0 0.00 0.00 0.00 45 1015.8
20260504001320 75 290 0.0 2.0 0.00 0.00 0.00 42 1015.8
20260504000824 75 67 0.0 2.0 0.00 0.00 0.00 41 1015.8
20260504000312 75 67 0.0 1.0 0.00 0.00 0.00 43 1015.7
20260503235815 75 67 1.0 2.0 0.00 0.00 0.00 42 1015.7
20260503235319 75 67 1.0 2.0 0.00 0.00 0.00 42 1015.7
20260503234823 75 53 1.0 2.0 0.00 0.00 0.00 41 1015.9
20260503234326 75 30 0.0 2.0 0.00 0.00 0.00 41 1015.9
20260503233809 75 34 2.0 3.0 0.00 0.00 0.00 40 1015.9
20260503233312 75 34 1.0 3.0 0.00 0.00 0.00 39 1015.9
20260503232836 75 69 2.0 4.0 0.00 0.00 0.00 39 1015.9
20260503232318 75 78 2.0 4.0 0.00 0.00 0.00 39 1015.9
20260503231821 76 68 3.0 4.0 0.00 0.00 0.00 38 1015.9
20260503231323 76 46 2.0 4.0 0.00 0.00 0.00 38 1015.9
20260503230827 76 42 1.0 3.0 0.00 0.00 0.00 39 1015.9
20260503230315 76 71 1.0 6.0 0.00 0.00 0.00 38 1016.0
20260503225819 76 44 2.0 6.0 0.00 0.00 0.00 37 1016.0
20260503225323 76 55 2.0 5.0 0.00 0.00 0.00 37 1016.0
20260503224826 75 13 2.0 6.0 0.00 0.00 0.00 38 1016.2
20260503224310 75 78 4.0 6.0 0.00 0.00 0.00 38 1016.2
20260503223814 75 40 3.0 7.0 0.00 0.00 0.00 38 1016.2
20260503223317 75 29 4.0 7.0 0.00 0.00 0.00 37 1016.3
20260503222841 75 46 3.0 9.0 0.00 0.00 0.00 38 1016.3
20260503222323 75 342 4.0 9.0 0.00 0.00 0.00 38 1016.3
20260503221809 75 44 2.0 5.0 0.00 0.00 0.00 38 1016.4
20260503221312 75 31 2.0 5.0 0.00 0.00 0.00 39 1016.4